Regional Weather Roundup
Issued by NWS State College, PA

Home | Current Version | Previous Version | Text Only | Print | Product List | Glossary Off
Versions: 1 2 3 4 5 6 7 8 9 10 11 12 13 14 15 16 17 18 19 20 21 22 23 24 25 26 27 28 29 30 31 32 33 34 35 36 37 38 39 40 41 42 43 44 45 46 47 48 49 50

000
ASUS41 KCTP 210303
RWRCTP

REGIONAL WEATHER ROUNDUP
NATIONAL WEATHER SERVICE STATE COLLEGE PA
1100 PM EDT SAT SEP 20 2014

Note: "fair" indicates few or no clouds below 12,000 feet with no
significant weather and/or obstructions to visibility.

* = STATION THAT DOES NOT REPORT PRECIPITATION /E.G. RAIN...SNOW...ETC/
    THUNDER OR FOG.

PAZ002>004-007>009-013>016-020>023-029>032-210400-
WESTERN PENNSYLVANIA

CITY           SKY/WX    TMP DP  RH WIND       PRES   REMARKS
ERIE           MOCLDY    73  60  63 S17G25    29.87F
MEADVILLE      PTCLDY    69  60  73 S10       29.94S
FRANKLIN*      MOCLDY    66  59  77 S13       29.98S
NEW CASTLE     NOT AVBL
BEAVER COUNTY  NOT AVBL
BUTLER*        CLEAR     66  59  77 S7        30.00S
PITTSBURGH INT PTCLDY    68  61  78 S6        29.98F
PITTSBURGH     CLEAR     68  59  73 S8        29.99F
INDIANA*       PTCLDY    63  59  88 CALM      30.05S
LATROBE        CLEAR     63  63 100 SW5       30.02S
WASHINGTON CO* CLEAR     66  61  82 S5        30.00F
$$

PAZ004>006-010>012-017>019-024>028-033>037-041-042-045-046-049>053-210400-
CENTRAL PENNSYLVANIA

CITY           SKY/WX    TMP DP  RH WIND       PRES   REMARKS
BRADFORD       PTCLDY    64  58  80 S5        30.00S
DUBOIS         PTCLDY    64  59  83 S7        30.00F
CLEARFIELD     MOCLDY    66  57  72 S7        30.03R
JOHNSTOWN      PTCLDY    64  54  69 S9        30.06S
ALTOONA        PTCLDY    65  57  75 S10       30.07R
STATE COLLEGE  PTCLDY    65  56  72 SW6       30.05R
WILLIAMSPORT   MOCLDY    70  55  59 S23G31    30.00R
SELINSGROVE    CLOUDY    68  60  75 S10       30.05R
FT INDIANTOWN  CLEAR     59  59 100 CALM      30.08S
CAPITAL CITY   CLEAR     65  59  81 S5        30.07R
HARRISBURG     PTCLDY    65  59  81 E3        30.06R
YORK           CLEAR     56  54  93 W3        30.08R
$$

PAZ038>040-043-044-047-048-054-055-060>062-067>071-210400-
EASTERN PENNSYLVANIA

CITY           SKY/WX    TMP DP  RH WIND       PRES   REMARKS
SCRANTON       PTCLDY    65  57  75 VRB3      30.06R
MOUNT POCONO   CLEAR     60  55  83 S8        30.10S
ALLENTOWN      PTCLDY    65  58  78 CALM      30.07S
QUAKERTOWN*    CLEAR     63  59  88 SE3       30.08F
READING        PTCLDY    67  58  72 CALM      30.06R
LANCASTER      CLEAR     59  57  93 NW5       30.07R
COATESVILLE    CLEAR     64  63  94 CALM      30.08S
POTTSTOWN      CLEAR     65  60  84 CALM      30.08F
BLUE BELL      CLEAR     63  61  94 CALM      30.06F
DOYLESTOWN     CLEAR     63  61  93 S5        30.07F
WILLOW GROVE   NOT AVBL
NORTH PHILA    CLEAR     67  61  81 CALM      30.08F
PHILADELPHIA   MOCLDY    67  62  84 CALM      30.06F
$$



USA.gov is the U.S. government's official web portal to all federal, state and local government web resources and services.